Location: Brno
(49.2000°N, 16.6330°E)
Time: 16:02:16
(UTC+02:00)

RESURS DK-1 - Visible Passes

Search period start: 29 August 2014 00:00
Search period end: 08 September 2014 00:00
Orbit: 563 x 566 km, 69.9° (Epoch: 26 August)

Date Brightness Start Highest point End Pass type
(mag) Time Alt. Az. Time Alt. Az. Time Alt. Az.
29 Aug 5.3 01:34:49 10° NW 01:34:52 10° NW 01:34:52 10° NW visible
29 Aug 5.0 22:20:16 10° NNE 22:21:11 11° NNE 22:22:05 10° NE visible
29 Aug 4.2 23:56:18 10° NNW 23:58:35 29° N 23:58:35 29° N visible
30 Aug 4.8 22:19:28 10° N 22:21:23 13° NE 22:22:20 12° NE visible
30 Aug 4.3 23:56:13 10° NNW 23:58:19 28° NNW 23:58:19 28° NNW visible
31 Aug 4.6 22:19:01 10° N 22:21:33 16° NE 22:22:06 15° NE visible
31 Aug 4.4 23:56:10 10° NNW 23:58:05 26° NNW 23:58:05 26° NNW visible
01 Sep 4.3 22:18:41 10° N 22:21:42 19° NE 22:21:52 19° NE visible
01 Sep 4.6 23:56:10 10° NW 23:57:52 24° NW 23:57:52 24° NW visible
02 Sep 4.1 22:18:26 10° N 22:21:41 23° NE 22:21:41 23° NE visible
02 Sep 4.7 23:56:12 10° NW 23:57:40 21° NW 23:57:40 21° NW visible
03 Sep 3.8 22:18:14 10° NNW 22:21:31 29° NE 22:21:31 29° NE visible
03 Sep 4.9 23:56:17 10° NW 23:57:30 18° NW 23:57:30 18° NW visible
04 Sep 3.5 22:18:04 10° NNW 22:21:23 35° NNE 22:21:23 35° NNE visible
04 Sep 5.1 23:56:27 10° NW 23:57:22 15° WNW 23:57:22 15° WNW visible
05 Sep 4.8 20:41:59 10° NNE 20:42:48 11° NNE 20:43:37 10° NE visible
05 Sep 3.2 22:17:57 10° NNW 22:21:16 43° NNE 22:21:16 43° NNE visible
05 Sep 5.2 23:56:44 10° WNW 23:57:15 12° WNW 23:57:15 12° WNW visible
06 Sep 4.7 20:41:07 10° N 20:43:00 13° NE 20:44:52 10° ENE visible
06 Sep 3.0 22:17:51 10° NNW 22:21:11 51° N 22:21:11 51° N visible
07 Sep 4.5 20:40:39 10° N 20:43:10 15° NE 20:45:07 12° ENE visible
07 Sep 2.9 22:17:47 10° NNW 22:21:07 56° NNW 22:21:07 56° NNW visible
